Flag for Malaysia Weather past 2 weeks in Kuching, Malaysia

Now
77 °F

Partly cloudy.


Feels Like: 78 °F
Forecast: 75 / 86 °F
Wind: 3 mph from West

Location: Kuching Airport

Current Time: Sep 24, 2014 at 2:51:14 AM

Latest Report: Sep 24, 2014 at 2:00 AM


Visibility: N/A

Pressure: 29.80 "Hg

Humidity: 94%

Dew point: 75 °F

Location of KuchingLocation

Historic Weather in Kuching — Graph

°F

Kuching temperature yesterday

Maximum temperature yesterday: 91 °F (at 3:00 PM)
Minimum temperature yesterday: 77 °F (at 2:00 AM)
Average temperature yesterday: 81 °F

Past Weeks' High & Low Weather Summary

 TemperatureHumidityPressure
High95 °F (Sep 13, 1:30 PM)94% (Sep 9, 2:30 AM)29.92 "Hg (Sep 9, 2:30 AM)
Low73 °F (Sep 9, 2:30 AM)53% (Sep 10, 2:30 PM)29.65 "Hg (Sep 16, 3:30 PM)
Average82 °F79%29.81 "Hg
* Reported Sep 9 1:00 AM — Sep 24 1:30 AM, Kuching, Weather by CustomWeather, © 2014

Note: Actual official high and low records may vary slightly from our data, if they occured in-between our weather recording intervals... More about our weather records

Advertising

Kuching weather history for previous 24 hours

 ConditionsComfort  
Time TempWeatherWind HumidityBarometerVisibility
1:30 AM
Sep 24
77 °FPartly cloudy.No wind94%29.80 "HgN/A
1:00 AM77 °FPartly cloudy.2 mph94%29.83 "HgN/A
12:30 AM77 °FPartly cloudy.5 mph94%29.83 "HgN/A
12:00 AM79 °FPartly cloudy.3 mph89%29.83 "HgN/A
11:30 PM
Sep 23
77 °FPartly cloudy.5 mph94%29.86 "HgN/A
11:00 PM77 °FPartly cloudy.1 mph94%29.86 "HgN/A
10:30 PM79 °FPartly cloudy.2 mph89%29.86 "HgN/A
10:00 PM79 °FPartly cloudy.3 mph89%29.86 "HgN/A
9:30 PM79 °FThunderstorms. Partly cloudy.5 mph89%29.86 "HgN/A
9:00 PM79 °FThunderstorms. Partly cloudy.6 mph89%29.83 "HgN/A
8:30 PM79 °FPartly cloudy.5 mph89%29.83 "HgN/A
8:00 PM79 °FPartly cloudy.3 mph89%29.80 "HgN/A
7:30 PM79 °FPartly cloudy.3 mph89%29.80 "HgN/A
7:00 PM79 °FPartly cloudy.1 mph89%29.80 "HgN/A
6:30 PM79 °FBroken clouds.1 mph89%29.77 "HgN/A
6:00 PM79 °FBroken clouds.1 mph89%29.77 "Hg5 mi
5:30 PM77 °FSprinkles. Broken clouds.6 mph94%29.77 "Hg5 mi
5:00 PM79 °FThunderstorms. Broken clouds.15 mph84%29.77 "Hg4 mi
4:30 PM88 °FScattered showers. Broken clouds.10 mph66%29.74 "Hg4 mi
4:00 PM91 °FBroken clouds.2 mph59%29.74 "HgN/A
3:30 PM91 °FBroken clouds.3 mph59%29.74 "HgN/A
3:00 PM91 °FBroken clouds.3 mph63%29.74 "HgN/A
2:30 PM90 °FSprinkles. Broken clouds.2 mph67%29.77 "HgN/A
2:00 PM88 °FSprinkles. Broken clouds.2 mph70%29.77 "HgN/A
1:30 PM84 °FSprinkles. Partly sunny.5 mph74%29.80 "Hg4 mi
1:00 PM84 °FSprinkles. Broken clouds.9 mph79%29.83 "Hg3 mi
12:30 PM86 °FBroken clouds.3 mph70%29.83 "Hg4 mi
12:00 PM88 °FBroken clouds.7 mph66%29.86 "Hg4 mi
11:30 AM88 °FBroken clouds.7 mph66%29.86 "Hg4 mi
11:00 AM86 °FBroken clouds.7 mph70%29.89 "Hg4 mi
10:30 AM86 °FBroken clouds.5 mph75%29.89 "Hg4 mi
10:00 AM84 °FBroken clouds.7 mph74%29.89 "Hg4 mi
9:30 AM84 °FBroken clouds.5 mph79%29.89 "Hg4 mi
9:00 AM82 °FPartly sunny.3 mph79%29.89 "Hg4 mi
8:30 AM81 °FBroken clouds.3 mph84%29.89 "Hg4 mi
8:00 AM79 °FBroken clouds.5 mph89%29.89 "Hg4 mi
7:30 AM79 °FBroken clouds.1 mph89%29.86 "Hg4 mi
7:00 AM77 °FBroken clouds.2 mph94%29.86 "Hg4 mi
6:30 AM77 °FBroken clouds.3 mph94%29.86 "Hg4 mi
6:00 AM77 °FPartly cloudy.3 mph94%29.86 "Hg5 mi
5:30 AM77 °FPartly cloudy.2 mph94%29.83 "Hg5 mi
5:00 AM79 °FPartly cloudy.1 mph89%29.83 "Hg5 mi
4:30 AM77 °FLight rain. Partly cloudy.3 mph94%29.83 "Hg5 mi
4:00 AM77 °FLight rain. Partly cloudy.3 mph94%29.83 "Hg4 mi
3:30 AM77 °FThunderstorms. Partly cloudy.2 mph89%29.83 "Hg5 mi
3:00 AM77 °FThunderstorms. Partly cloudy.3 mph89%29.83 "Hg5 mi
2:30 AM77 °FThunderstorms. Partly cloudy.5 mph89%29.83 "Hg5 mi
2:00 AM77 °FThunderstorms. Partly cloudy.2 mph89%29.83 "Hg5 mi
Weather by CustomWeather, © 2014

See weather overviewHow to use our weather pages